If you wish to contribute or participate in the discussions about articles you are invited to join SKYbrary as a registered user

 Actions

Arad International Airport

From SKYbrary Wiki

LRAR
Airport
ICAO: LRAR – IATA: ARW
Summary
Name Arad International Airport
Region
Territory Romania RO.gif
Location , Arad
Serving Arad
Elevation 107.29 m
352 ft
352 ft107.29 m
Type medium airport
Coordinates 46° 10' 35.58", 21° 15' 43.2792"
Runways
Designator Length Width Surface ROPS
9/27 2000 m6,561.68 ft 45 m147.638 ft CON /


METAR
Observation LRAR 230200Z AUTO 26005KT 9999 NCD 09/09 Q1017
Station Arad
Date/Time 23 June 2018 02:00:00
Wind direction 260°
Wind speed 05 kts
Lowest cloud amount no clouds detected
Temperature 9°C
Dew point 9°C
Humidity 100%
QNH 1017 hPa
Weather condition n/a